Regional Weather Roundup
Issued by NWS Boston, MA

Current Version | Previous Version | Text Only | Print | Product List | Glossary Off
Versions: 1 2 3 4 5 6 7 8 9 10 11 12 13 14 15 16 17 18 19 20 21 22 23 24 25 26 27 28 29 30 31 32 33 34 35 36 37 38 39 40 41 42 43 44 45 46 47 48 49 50
000 ASUS41 KBOX 190510 RWRBOX REGIONAL WEATHER ROUNDUP NATIONAL WEATHER SERVICE TAUNTON MA 1200 AM EST MON FEB 19 2018 NOTE: "FAIR" INDICATES FEW OR NO CLOUDS BELOW 12,000 FEET WITH NO SIGNIFICANT WEATHER AND/OR OBSTRUCTIONS TO VISIBILITY. MAZALL-190600- EASTERN MASSACHUSETTS CITY SKY/WX TMP DP RH WIND PRES REMARKS BOSTON FAIR 34 22 61 S5 30.55R WCI 30 BEVERLY FAIR 26 20 77 S3 30.53R LAWRENCE FAIR 25 19 78 S3 30.54S BEDFORD FAIR 22 19 89 CALM 30.53R BLUE HILL N/A 31 21 66 W6 30.50S WCI 25 NORWOOD FAIR 25 22 88 CALM 30.55R MARSHFIELD FAIR 28 27 93 CALM 30.55R PLYMOUTH FAIR 25 23 92 CALM 30.55R TAUNTON FAIR 25 22 88 CALM 30.55R NEW BEDFORD FAIR 28 25 88 CALM 30.55R $$ MAZALL-190600- CAPE COD AND THE ISLANDS CITY SKY/WX TMP DP RH WIND PRES REMARKS FALMOUTH FAIR 23 21 93 CALM 30.56 HYANNIS FAIR 26 23 88 CALM 30.54R CHATHAM FAIR 28 27 96 CALM 30.56R PROVINCETOWN FAIR 25 23 92 CALM 30.56R NANTUCKET FAIR 28 28 100 CALM 30.55R MARTHAS VNYRD FAIR N/A N/A N/A N6 30.55R $$ MAZALL-190600- CENTRAL AND WESTERN MASSACHUSETTS CITY SKY/WX TMP DP RH WIND PRES REMARKS WORCESTER FAIR 28 18 66 W5 30.49R WCI 23 FITCHBURG FAIR 22 18 85 CALM 30.53R ORANGE FAIR 21 20 96 CALM 30.51F SPRINGFIELD FAIR 22 18 85 CALM 30.51S WESTFIELD FAIR 22 21 96 CALM 30.52S NORTH ADAMS FAIR 15 13 91 CALM 30.47F PITTSFIELD FAIR 19 13 77 CALM 30.44F $$ RIZALL-190600- RHODE ISLAND CITY SKY/WX TMP DP RH WIND PRES REMARKS PROVIDENCE FAIR 30 24 78 CALM 30.56R NEWPORT FAIR 29 24 82 CALM 30.55R BLOCK ISLAND FAIR 33 25 72 N5 30.55S WCI 29 SMITHFIELD FAIR 27 21 78 CALM 30.53R WESTERLY FAIR 29 25 85 CALM 30.56R $$ CTZALL-190600- CONNECTICUT CITY SKY/WX TMP DP RH WIND PRES REMARKS BRADLEY INTL FAIR 25 21 85 CALM 30.53F HARTFORD FAIR 24 21 88 CALM 30.54F BRIDGEPORT FAIR 30 25 81 NE5 30.54S WCI 25 DANBURY FAIR 24 20 84 CALM 30.52F GROTON FAIR 28 22 78 CALM 30.55S NEW HAVEN FAIR 26 22 84 CALM 30.54S CHESTER FAIR 28 21 74 CALM 30.53S MERIDEN FAIR 23 20 88 CALM 30.54S WILLIMANTIC FAIR 24 21 88 CALM 30.55S OXFORD FAIR 28 22 78 E5 30.50F WCI 23 $$ MEZ002-015-021-024-NHZ003-005-008-011-012-014-VTZ005-008-190600- NORTHERN NEW ENGLAND CITY SKY/WX TMP DP RH WIND PRES REMARKS PORTLAND ME FAIR 22 19 89 CALM 30.51S BANGOR ME FAIR 15 13 91 CALM 30.47F CONCORD NH FAIR 22 17 81 CALM 30.50R MANCHESTER NH FAIR 25 19 78 CALM 30.50S NASHUA NH FAIR 18 16 92 CALM 30.52S PORTSMOUTH NH PTCLDY 24 19 82 CALM 30.50F JAFFREY NH FAIR 18 16 92 S3 30.47S KEENE NH NOT AVBL BURLINGTON VT FAIR 32 20 61 S6 30.41R WCI 26 MT. WASHINGTON PTCLDY 19 -4 35 NW25 N/A WCI 2 $$ NYZ052-076-190600- EASTERN NEW YORK CITY SKY/WX TMP DP RH WIND PRES REMARKS ALBANY FAIR 24 18 77 S3 30.48F NEW YORK CITY FAIR 36 26 67 CALM 30.52S $$ ANZALL-190600- MARINE OBSERVATIONS STATION/POSITION TIME TEMP WIND PRES VSBY WAVE AIR SEA DIR/SP/G HT/PER (UTC) (F) (DEG/KT/KT) (MB) (MI) (FT/S) BOSTON BUOY 0450 38 39 320/ 2/ 2 1033.6R 3/ 6 BUZZARDS BAY 0400 36 340/ 7/ 8 1034.8R NANTUCKET SOUND 0450 36 37 300/ 4/ 6 1034.5R 1 MASS BAY-STELLWA 0404 37 39 1032.7R 3/ 6 ISLE OF SHOALS 0400 36 340/ 3/ 4 1033.3R S OF BLOCK IS 0443 39 N/A 3/ 8 $$ ......................KEY......................... SKY/WX - SKY CONDITION/PRESENT WEATHER TMP - TEMPERATURE IN FAHRENHEIT DWPT - DEWPOINT IN FAHRENHEIT RH - RELATIVE HUMIDITY IN PERCENT WIND - DIRECTION AND SPEED IN MPH PRES - MEAN SEA LEVEL PRESSURE IN INCHES OF HG WCI - WIND CHILL INDEX VSB - VISIBILITY IN MILES HX - HEAT INDEX TC - TEMPERATURE IN CELSIUS VRB - VARIABLE WIND DIRECTION N/A - NOT AVAILABLE

USA.gov is the U.S. government's official web portal to all federal, state and local government web resources and services.